Regional Weather Roundup
Issued by NWS Newport/Morehead, NC

Current Version | Previous Version | Text Only | Print | Product List | Glossary Off
Versions: 1 2 3 4 5 6 7 8 9 10 11 12 13 14 15 16 17 18 19 20 21 22 23 24 25 26 27 28 29 30 31 32 33 34 35 36 37 38 39 40 41 42 43 44 45 46 47 48 49 50
000 ASUS42 KMHX 201026 RWRMHX WEATHER ROUNDUP FOR EASTERN NORTH CAROLINA NATIONAL WEATHER SERVICE NEWPORT/MOREHEAD CITY NC 600 AM EDT SUN AUG 20 2017 NOTE: "FAIR" INDICATES FEW OR NO CLOUDS BELOW 12,000 FEET WITH NO SIGNIFICANT WEATHER AND/OR OBSTRUCTIONS TO VISIBILITY NCZ015>017-031-032-045>047-102-103-201100- NORTH COAST CITY SKY/WX TMP DP RH WIND PRES REMARKS EDENTON CLEAR 75 73 95 CALM 30.03R ELIZABETH CITY CLEAR 73 73 100 CALM 30.01S KITTY HAWK SUNNY 76 75 99 CALM 30.01R MANTEO CLEAR 75 74 95 W5 30.02R $$ NCZ045>047-081-094-103-104-201100- CENTRAL COAST CITY SKY/WX TMP DP RH WIND PRES REMARKS FRISCO PTCLDY 80 76 87 W5 30.01S $$ NCZ095-097-098-100-101-201100- SOUTHERN COAST CITY SKY/WX TMP DP RH WIND PRES REMARKS BEAUFORT CLOUDY 78 78 100 CALM 30.02R CEDAR ISLAND NOT AVBL JACKSONVILLE CLOUDY 76 76 100 CALM 30.02R PINEY ISLAND PTSUNNY N/A N/A N/A NW5 30.02R WILMINGTON MOCLDY 75 75 100 CALM 30.02R FOG $$ NCZ011>013-027>030-043-044-078>080-089-090>093-098-201100- COASTAL PLAIN CITY SKY/WX TMP DP RH WIND PRES REMARKS AHOSKIE FOG 69 69 99 CALM 30.03S VSB 1 CLINTON CLOUDY 73 73 100 CALM 30.03R VSB 1/4 ELIZABETHTOWN NOT AVBL GOLDSBORO CLEAR 71 71 100 SE2 30.02R GREENVILLE FOG 72 72 100 CALM 30.04S VSB 1 HAVELOCK MOCLDY 76 74 93 NW6 30.03R KENANSVILLE FOG 73 73 100 CALM 30.04R VSB 3/4 KINSTON CLOUDY 68 68 99 CALM 30.04R FOG NEW BERN CLOUDY 75 75 100 CALM 30.03R RICHLANDS CLOUDY 73 73 100 CALM 30.03R FOG ROCKY MOUNT MOCLDY 70 70 100 CALM 30.03S FOG WASHINGTON CLEAR 71 71 98 CALM 30.03R FOG WHITEVILLE CLOUDY 78 77 97 CALM 30.01R FOG $$ AMZ130-135-150-152-154-156-158-170-250-252-270-ANZ085-086-088-633-658-670-201100- MARINE OBSERVATIONS STATION/POSITION TIME TEMP WIND PRES WAVE SWELL AIR SEA DIR/SP/G HT/PER HT/PER (UTC) (F) (DEG/KT/KT) (MB) (FT/S) (FT/S) CHESAPEAKE LIGHT NOT AVBL 64 E VA BEACH 0950 78 78 250/ 2/ 4 1016.5 3/ 6 3/ 6 DUCK 1000 78 73 280/ 5/ 7 1015.9 2 E DUCK NOT AVBL OREGON INLET 1000 78 81 270/ 5/ 7 1016.2 13E OREGON INLT 0948 79 N/A 3/ 8 3/ 8 HATTERAS CG 1000 81 80 290/ 9/ 10 1016.2 DIAMOND BUOY 0950 81 83 270/ 8/ 10 1016.0 3/ 9 3/ 9 CAPE LOOKOUT 1000 75 220/ 5/ 7 1016.3 BEAUFORT LAB 1000 80 81 290/ 2/ 2 1016.3 30 SE NEW RVR IN 1008 81 83 250/ 10/ 14 1016.6 30 SE NEW RVR IN 0913 84 N/A 4/ 5 27 SE WRIGHTSVLE 1008 83 83 220/ 12/ 16 1016.3 5 SE WRIGHTSVLE 1008 82 83 260/ 8/ 10 1016.0 225 S CAPE HAT 0950 78 84 110/ 10/ 12 1017.9 3/ 5 3/ 5 41 SE CHARLESTON 1010 84 84 230/ 10/ 12 1015.9 $$

USA.gov is the U.S. government's official web portal to all federal, state and local government web resources and services.